[[{"header":{"parameterUnit":"m.s-1","parameterCategory":1,"la1":30.2992,"la2":30.254,"lo1":-89.0895,"lo2":-89.0443,"dy":0.0025,"dx":0.0025,"nx":19,"ny":19,"refTime":"2026-04-19T09:00:00:Z","depth":0,"parameterNumber":2,"parameterNumberName":"U-component_of_WINDS"},"data":[0,0,0,2.0833,2.0838,2.1078,2.1079,2.139,2.1393,0,0,0,0,0,0,0,0,0,0,0,2.0761,2.0763,2.0833,2.0839,2.1078,2.1079,2.139,2.1393,0,0,0,0,0,0,0,0,0,0,0,2.0761,2.0763,2.0766,2.0839,2.1078,2.1079,2.1389,2.1207,0,0,0,0,0,0,0,0,0,0,2.0974,2.0907,2.0762,2.0766,2.0841,2.1078,2.1079,2.1199,2.1219,2.1282,0,2.1336,0,2.1369,2.1414,2.1415,0,0,0,2.084,2.089,2.0954,2.0766,2.0843,2.1077,2.097,2.121,2.1233,2.1309,2.134,2.1352,2.1374,2.1416,2.1417,2.177,2.1771,0,0,2.0827,2.0806,2.0939,2.0969,2.0929,2.0963,2.0978,2.1224,2.1258,2.1341,2.1359,2.1379,2.1418,2.142,2.1768,2.177,0,0,0,2.0788,2.0796,2.0855,2.0956,2.0999,2.097,2.0987,2.1247,2.1267,2.1363,2.1383,2.142,2.1424,2.1767,2.1769,2.1824,0,0,0,2.078,2.0773,2.0849,2.0838,2.0994,2.1125,2.1005,2.125,2.1279,2.1381,2.142,2.1427,2.1765,2.1768,2.1819,2.1855,0,0,0,2.0746,2.0769,2.0803,2.0837,2.0938,2.1122,2.1157,2.1257,2.1291,2.1415,2.1427,2.1764,2.1767,2.1814,2.1847,2.1941,0,0,0,2.0705,2.0852,2.0804,2.0976,2.0936,2.1152,2.1155,2.1319,2.1431,2.1421,2.1765,2.1769,2.1813,2.1843,2.1935,2.2015,2.2046,0,0,2.0879,2.0872,2.0975,2.0939,2.1158,2.1118,2.1346,2.1472,2.1506,2.1681,2.169,2.1821,2.1847,2.1939,2.2226,2.225,0,0,0,2.1023,2.1097,2.116,2.1263,2.1359,2.1446,2.1537,2.1584,2.1732,2.159,2.188,2.1896,2.1952,2.1991,2.2012,2.2061,2.1786,2.1785,2.1785,2.1241,2.1271,2.1444,2.1502,2.1603,2.1694,2.178,2.1858,2.1864,2.1931,2.1984,2.2153,2.2198,2.2214,2.2265,2.2028,2.2028,2.2028,2.2028,2.1499,2.1608,2.1606,2.1772,2.1804,2.1946,2.2039,2.2037,2.2175,2.2117,2.2167,2.2101,2.2239,2.2286,2.2033,2.2032,2.2032,2.2031,2.2031,2.1646,2.1703,2.1753,2.1904,2.2018,2.2074,2.2204,2.223,2.2256,2.2306,2.2364,2.2363,2.2366,2.2331,2.2331,2.2332,2.2333,2.2333,2.2333,2.1779,2.1834,2.1939,2.205,2.2118,2.2212,2.2303,2.2373,2.2457,2.2466,2.2466,2.2465,2.2246,2.2191,2.2343,2.2341,2.234,2.2339,2.2338,2.2032,2.1977,2.2139,2.2208,2.234,2.245,2.2479,2.2618,2.268,2.2743,2.273,2.2563,2.256,2.2544,2.2499,2.2722,2.2722,2.2722,2.2722,2.2156,2.2155,2.2325,2.2432,2.254,2.2581,2.2766,2.2837,2.2904,2.2945,2.2916,2.2857,2.2839,2.2847,2.2824,2.2783,2.3073,2.3073,2.3073,2.2313,2.2323,2.2474,2.2533,2.2637,2.2727,2.2901,2.3027,2.3092,2.3088,2.2977,2.2962,2.2868,2.2836,2.2832,2.2796,2.272,0,0]},{"header":{"parameterUnit":"m.s-1","parameterCategory":1,"la1":30.2992,"la2":30.254,"lo1":-89.0895,"lo2":-89.0443,"dy":0.0025,"dx":0.0025,"nx":19,"ny":19,"refTime":"2026-04-19T09:00:00:Z","depth":0,"parameterNumber":3,"parameterNumberName":"V-component_of_WINDS"},"data":[0,0,0,2.2641,2.2646,2.2851,2.2852,2.3111,2.3113,0,0,0,0,0,0,0,0,0,0,0,2.2579,2.258,2.2641,2.2646,2.2851,2.2852,2.311,2.3113,0,0,0,0,0,0,0,0,0,0,0,2.2578,2.258,2.2582,2.2647,2.2851,2.2852,2.311,2.2956,0,0,0,0,0,0,0,0,0,0,2.2757,2.2698,2.2579,2.2582,2.2648,2.2851,2.2852,2.2949,2.2965,2.3016,0,2.3061,0,2.3091,2.313,2.3131,0,0,0,2.2647,2.2684,2.2741,2.2582,2.265,2.285,2.2759,2.2958,2.2977,2.3038,2.3065,2.3074,2.3095,2.3132,2.3133,2.3423,2.3424,0,0,2.2636,2.2614,2.2727,2.2753,2.2722,2.2752,2.2765,2.297,2.2997,2.3066,2.3081,2.31,2.3133,2.3135,2.3422,2.3423,0,0,0,2.2602,2.2606,2.2659,2.2742,2.278,2.2758,2.2773,2.2988,2.3006,2.3083,2.3103,2.3135,2.3138,2.342,2.3422,2.3467,0,0,0,2.2596,2.2587,2.2654,2.2643,2.2776,2.2886,2.2786,2.2992,2.3016,2.3101,2.3135,2.314,2.3419,2.3421,2.3463,2.3492,0,0,0,2.2566,2.2584,2.2613,2.2641,2.2729,2.2884,2.2914,2.2998,2.3028,2.3131,2.3141,2.3418,2.3421,2.3459,2.3486,2.3563,0,0,0,2.2528,2.2649,2.2613,2.2756,2.2727,2.291,2.2913,2.305,2.3144,2.3136,2.3419,2.3422,2.3458,2.3482,2.3559,2.3625,2.3651,0,0,2.2668,2.2665,2.2751,2.2725,2.2909,2.288,2.3071,2.3176,2.3205,2.3348,2.3356,2.3464,2.3486,2.3563,2.3799,2.3819,0,0,0,2.2788,2.2849,2.2903,2.2992,2.3076,2.3151,2.3229,2.3268,2.3392,2.3274,2.3513,2.3527,2.3573,2.3605,2.3622,2.3664,2.3436,2.3436,2.3435,2.2957,2.2988,2.3132,2.3189,2.3274,2.3355,2.3428,2.3494,2.3499,2.3555,2.3598,2.3738,2.3776,2.3789,2.3831,2.3635,2.3635,2.3635,2.3636,2.3167,2.3259,2.3265,2.3406,2.3439,2.3558,2.364,2.364,2.3756,2.3708,2.375,2.3696,2.381,2.3849,2.3639,2.3639,2.3638,2.3638,2.3638,2.3282,2.3331,2.3378,2.351,2.3609,2.3661,2.3773,2.3797,2.3821,2.3863,2.3912,2.3911,2.3915,2.3884,2.3885,2.3885,2.3886,2.3886,2.3886,2.3383,2.3434,2.3525,2.3625,2.3686,2.377,2.3852,2.3913,2.3986,2.3995,2.3996,2.3996,2.3815,2.3769,2.3894,2.3893,2.3892,2.3891,2.389,2.3585,2.3544,2.3685,2.3746,2.3867,2.3963,2.3994,2.4115,2.4169,2.4223,2.4215,2.4076,2.4074,2.4061,2.4023,2.4207,2.4207,2.4207,2.4207,2.3683,2.3685,2.3835,2.3932,2.4029,2.4071,2.423,2.4296,2.4356,2.4392,2.4368,2.4321,2.4306,2.4313,2.4294,2.4259,2.4499,2.4499,2.4499,2.381,2.3822,2.3953,2.4013,2.4109,2.4191,2.4342,2.4452,2.4512,2.4512,2.442,2.4408,2.4331,2.4304,2.4301,2.4272,2.4209,0,0]}]]